Weather in Istres

France     43°30′55″N   4°58′58″E
temp.,
°C
wind,
m/s
gust,
m/s
humid.,
%
clouds,
%
prec.,
mm/h
press.,
hPa
HPBL,
m
24 january, sun
sun2401:00+6nnw4759100 0.0 1003306
04:00+7nnw3472100 1.0 997363
07:00+6nw111674100 1.0 999892
10:00+6nnw1218570 0.0 10031052
13:00+8nnw1014380 0.0 10041013
16:00+9nnw69410 0.0 10061013
19:00+7wnw375517 0.0 1006403
22:00+10wsw6117060 0.0 1007969
25 january, mon
mon2501:00+9w9127282 0.4 1006689
04:00+9w81464100 0.0 10061379
07:00+3nw510580 0.0 1014582
10:00+4nnw59543 0.0 1016587
13:00+8nnw7114397 0.0 10101558
16:00+9nnw694025 0.0 10101628
19:00+7nnw7105413 0.0 1013948
22:00+5nnw11175322 0.0 1015740
26 january, tue
tue2601:00+4nnw10176111 0.0 1016574
04:00+4nnw1319620 0.0 1017895
07:00+3nnw916590 0.0 1018497
10:00+4nnw915580 0.0 1021512
13:00+7nnw1014410 0.0 1020641
16:00+8nnw81240100 0.0 1018589
19:00+7nnw9143348 0.0 1020659
22:00+6nnw81437100 0.0 1021584
27 january, wed
wed2701:00+6nnw8154287 0.0 1021552
04:00+5nw596642 0.0 1019328
07:00+4nnw5105359 0.0 1021323
10:00+5nnw5104936 0.0 1021304
13:00+12nw7105819 0.0 1020535
16:00+12nnw712510 0.0 1021616
19:00+10nnw6116023 0.0 1023353
22:00+8nw486378 0.0 1023254
28 january, thu
thu2801:00+7nnw357259 0.0 1023156
04:00+7nnw367130 0.0 1022156
07:00+9ene2276100 0.0 101841
10:00+10nne1273100 0.0 101862
13:00+13nnw2467100 0.0 1017245
16:00+13nnw3568100 0.0 1020238
19:00+11w3582100 0.0 1021116
22:00+11nw368453 0.0 1022160